Regional Weather Roundup
Issued by NWS Sioux Falls, SD

Home | Current Version | Previous Version | Text Only | Print | Product List | Glossary On
Versions: 1 2 3 4 5 6 7 8 9 10 11 12 13 14 15 16 17 18 19 20 21 22 23 24 25 26 27 28 29 30 31 32 33 34 35 36 37 38 39 40 41 42 43 44 45 46 47 48 49 50
000
ASUS43 KFSD 031410
RWRFSD

WEATHER ROUNDUP FOR SE SOUTH DAKOTA/SW MINNESOTA/NW IOWA
NATIONAL WEATHER SERVICE SIOUX FALLS SD
900 AM CDT MON AUG 03 2015

NOTE: "FAIR" INDICATES FEW OR NO CLOUDS BELOW 12,000 FEET WITH NO
SIGNIFICANT WEATHER AND OR OBSTRUCTIONS TO VISIBILITY.


SDZ038>040-050-052>070-031500-
SOUTHEAST SOUTH DAKOTA

CITY           SKY/WX    TMP DP  RH WIND       PRES   REMARKS
BROOKINGS      SUNNY     66  55  68 W3        30.02R
CHAMBERLAIN    PTSUNNY   66  60  81 CALM      30.02S
HURON          SUNNY     66  60  81 NW3       29.99S
MADISON        FAIR      68  57  68 SW3       30.01S
MITCHELL       SUNNY     66  61  84 CALM      30.01R
SIOUX FALLS    MOSUNNY   68  60  75 W3        30.00R
WINNER         PTSUNNY   70  59  68 SE3       30.02R
YANKTON        SUNNY     66  63  88 CALM      29.99F
$$

MNZ071-072-080-081-089-090-097-098-031500-
SOUTHWEST MINNESOTA

CITY           SKY/WX    TMP DP  RH WIND       PRES   REMARKS
FAIRMONT       SUNNY     66  52  59 CALM      29.96S
JACKSON        SUNNY     66  55  68 W5        29.98S
LUVERNE        SUNNY     64  59  82 W5        30.00S
MARSHALL       SUNNY     66  52  59 NW9       29.99R
MONTEVIDEO     SUNNY     70  63  78 N5        29.98R
PIPESTONE      SUNNY     66  57  72 CALM      30.00R
REDWOOD FALLS  SUNNY     67  55  65 W7        29.96R
TRACY          SUNNY     66  57  72 W5        29.99R
WINDOM         SUNNY     66  55  68 CALM      29.98S
WORTHINGTON    SUNNY     66  55  68 W6        29.99S
$$

IAZ001>003-012>014-020>022-031-032-NEZ013-014-SDZ071-031500-
NORTHWEST IOWA

CITY           SKY/WX    TMP DP  RH WIND       PRES   REMARKS
CHEROKEE       SUNNY     66  63  89 CALM      29.99S
DENISON        SUNNY     68  63  83 NE3       29.97R
ESTHERVILLE    SUNNY     66  57  72 W3        29.98R
LE MARS        SUNNY     66  61  82 CALM      30.01R
ORANGE CITY    SUNNY     64  61  88 CALM      30.00R
SHELDON        SUNNY     66  59  77 CALM      29.99R
SIOUX CITY     NOT AVBL
SPENCER          N/A     67  56  67 W3        29.99R
STORM LAKE     SUNNY     68  59  73 CALM      30.00R
$$

ABBREVIATIONS USED IN REMARKS
   TC - TEMPERATURE IN CELSIUS
  WCI - WIND CHILL INDEX
   HX - HEAT INDEX
  VSB - VISIBILITY




USA.gov is the U.S. government's official web portal to all federal, state and local government web resources and services.